User: anonymous   Login
Location: Unspecified
(0.0000°N, 0.0000°E)
Time: 22:32:17
(UTC+00:00)
Language:

Cosmos 1697 Rocket - Orbit

View from above orbital plane
View from above orbital plane
View from above satellite
View from above satellite

Ground track
Ground track

The orbit data is extracted from the following two-line orbital elements,

1 16182U 85097B   19112.16324986 -.00000085  00000-0 -18668-4 0  9998
2 16182  71.0055  30.0117 0005910 141.3486 322.4275 14.16243290731640
Epoch (UTC): 22 April 2019 03:55:04
Eccentricity: 0.0005910
inclination: 71.0055°
perigee height: 834 km
apogee height: 842 km
right ascension of ascending node: 30.0117°
argument of perigee: 141.3486°
revolutions per day: 14.16243290
mean anomaly at epoch: 322.4275°
orbit number at epoch: 73164

The dashed part of the orbit path shows where the satellite is in the earth's shadow,  

DLR